Location: Howard City Library
(37.4684°N, 96.2639°W)
Time: 10:31:48
(UTC+00:00)

Aureole 1 Rocket - Pass Details

Date: 18 February 2020
Orbit: 378 x 1381 km, 73.9° (Epoch: 29 March)

Event Time Altitude Azimuth Distance (km) Brightness Sun altitude
Exits shadow 11:17:13 - 199° (SSW) 3,547 6.7 -23.3°
Reaches altitude 10° 11:19:00 10° 200° (SSW) 2,929 6.3 -22.9°
Maximum altitude 11:26:11 83° 288° (WNW) 1,271 4.4 -21.5°
Drops below altitude 10° 11:34:41 10° 17° (NNE) 3,439 7.0 -19.8°
Sets 11:37:41 0° 18° (NNE) 4,437 7.7 -19.2°
